GW3011 Weather Reports


time (UTC)temp
C
wind
direction
speed
KPH
gust
KPH
rain 1hr
cm
rain 24hr
cm
rain mn
cm
humidity
%
barometer
mb
20260509141601 16 317 3.2 11.3 0.00 0.00 0.00 68 1011.5
20260509141057 16 312 1.6 1.6 0.00 0.00 0.00 69 1011.3
20260509140554 15 306 1.6 1.6 0.00 0.00 0.00 69 1011.3
20260509140052 15 251 3.2 3.2 0.00 0.00 0.00 70 1011.6
20260509135549 15 296 0.0 1.6 0.00 0.00 0.00 71 1011.5
20260509135047 15 186 1.6 3.2 0.00 0.00 0.00 72 1011.5
20260509134544 15 304 0.0 0.0 0.00 0.00 0.00 71 1011.3
20260509134041 15 202 1.6 3.2 0.00 0.00 0.00 72 1011.4
20260509133538 14 139 6.4 6.4 0.00 0.00 0.00 73 1011.3
20260509133035 15 152 3.2 4.8 0.00 0.00 0.00 73 1011.6
20260509132533 15 188 3.2 9.7 0.00 0.00 0.00 72 1011.4
20260509132031 15 205 3.2 6.4 0.00 0.00 0.00 70 1011.5
20260509131522 15 27 3.2 3.2 0.00 0.00 0.00 70 1011.4
20260509131019 15 218 3.2 4.8 0.00 0.00 0.00 71 1011.4
20260509130514 15 32 1.6 1.6 0.00 0.00 0.00 71 1011.5
20260509130012 15 6 1.6 3.2 0.00 0.00 0.00 71 1011.7
20260509125508 15 299 0.0 0.0 0.00 0.00 0.00 72 1011.9
20260509125004 14 312 0.0 0.0 0.00 0.00 0.00 73 1011.8
20260509124501 14 307 0.0 1.6 0.00 0.00 0.00 73 1011.8
20260509123958 14 302 0.0 0.0 0.00 0.00 0.00 71 1011.8
20260509123456 14 313 1.6 3.2 0.00 0.00 0.00 72 1011.9
20260509122951 14 304 1.6 1.6 0.00 0.00 0.00 72 1011.8
20260509122449 14 308 3.2 4.8 0.00 0.00 0.00 72 1012.0
20260509121945 14 315 1.6 1.6 0.00 0.00 0.00 72 1012.0
20260509121442 14 304 0.0 0.0 0.00 0.00 0.00 71 1011.8
20260509120940 14 351 1.6 1.6 0.00 0.00 0.00 72 1011.8
20260509120438 14 308 1.6 3.2 0.00 0.00 0.00 71 1011.9
20260509115936 14 302 0.0 1.6 0.00 0.00 0.00 71 1011.7
20260509115432 13 289 0.0 1.6 0.00 0.00 0.00 71 1012.1
20260509114930 13 182 4.8 4.8 0.00 0.00 0.00 71 1011.9
20260509114429 13 262 3.2 4.8 0.00 0.00 0.00 71 1012.0
20260509113928 13 261 0.0 1.6 0.00 0.00 0.00 71 1012.0
20260509113425 13 165 6.4 9.7 0.00 0.00 0.00 71 1011.9
20260509112921 13 195 4.8 6.4 0.00 0.00 0.00 71 1011.9
20260509112419 13 182 4.8 6.4 0.00 0.00 0.00 71 1011.9
20260509111915 13 149 3.2 6.4 0.00 0.00 0.00 71 1011.6
20260509111412 13 274 3.2 4.8 0.00 0.00 0.00 71 1011.8
20260509110910 13 301 1.6 1.6 0.00 0.00 0.00 71 1011.9
20260509110406 13 172 6.4 9.7 0.00 0.00 0.00 71 1011.8
20260509105904 13 135 6.4 6.4 0.00 0.00 0.00 71 1012.0
20260509105402 13 231 3.2 4.8 0.00 0.00 0.00 72 1011.8
20260509104859 13 140 9.7 14.5 0.00 0.00 0.00 71 1011.7
20260509104355 13 310 0.0 0.0 0.00 0.00 0.00 72 1011.5
20260509103853 13 248 6.4 11.3 0.00 0.00 0.00 72 1011.4
20260509103350 13 188 3.2 3.2 0.00 0.00 0.00 72 1011.6
20260509102849 13 285 0.0 0.0 0.00 0.00 0.00 72 1011.8
20260509102346 13 268 0.0 0.0 0.00 0.00 0.00 72 1011.5
20260509101841 13 301 0.0 1.6 0.00 0.00 0.00 74 1011.5
20260509101338 13 314 1.6 1.6 0.00 0.00 0.00 75 1011.4
20260509100836 12 327 0.0 0.0 0.00 0.00 0.00 76 1011.6
20260509100333 12 326 1.6 1.6 0.00 0.00 0.00 76 1011.4
20260509095829 12 328 0.0 0.0 0.00 0.00 0.00 76 1011.3
20260509095327 12 319 1.6 1.6 0.00 0.00 0.00 77 1011.3
20260509094824 12 321 3.2 3.2 0.00 0.00 0.00 77 1011.4
20260509094320 12 324 1.6 3.2 0.00 0.00 0.00 78 1011.5
20260509093818 12 325 0.0 1.6 0.00 0.00 0.00 78 1011.6
20260509093315 12 319 0.0 0.0 0.00 0.00 0.00 77 1011.2
20260509092814 12 318 0.0 0.0 0.00 0.00 0.00 78 1011.1
20260509092311 12 322 1.6 1.6 0.00 0.00 0.00 78 1011.4
20260509091809 12 329 1.6 1.6 0.00 0.00 0.00 78 1011.4
20260509091305 12 311 0.0 0.0 0.00 0.00 0.00 78 1011.6
20260509090803 12 313 0.0 1.6 0.00 0.00 0.00 78 1011.4
20260509090300 12 316 1.6 1.6 0.00 0.00 0.00 78 1011.3
20260509085757 13 306 0.0 0.0 0.00 0.00 0.00 78 1011.3
20260509085254 13 296 1.6 1.6 0.00 0.00 0.00 77 1011.4
20260509084751 13 313 1.6 3.2 0.00 0.00 0.00 77 1011.3
20260509084248 13 318 1.6 3.2 0.00 0.00 0.00 74 1011.5
20260509083746 13 333 1.6 1.6 0.00 0.00 0.00 72 1011.3
20260509083242 13 324 0.0 1.6 0.00 0.00 0.00 73 1011.5
20260509082738 13 318 0.0 0.0 0.00 0.00 0.00 74 1011.5
20260509082235 13 318 0.0 0.0 0.00 0.00 0.00 75 1011.6
20260509081732 13 317 0.0 0.0 0.00 0.00 0.00 75 1011.6
20260509081230 13 317 0.0 0.0 0.00 0.00 0.00 76 1011.3
20260509080728 13 317 0.0 0.0 0.00 0.00 0.00 76 1011.4
20260509080225 13 317 0.0 0.0 0.00 0.00 0.00 76 1011.5
20260509075723 13 318 0.0 0.0 0.00 0.00 0.00 75 1011.4
20260509075221 13 318 0.0 0.0 0.00 0.00 0.00 75 1011.4
20260509074717 13 336 0.0 0.0 0.00 0.00 0.00 73 1011.6
20260509074215 13 324 0.0 0.0 0.00 0.00 0.00 74 1011.6
20260509073711 13 325 0.0 0.0 0.00 0.00 0.00 74 1011.7
20260509073207 13 340 1.6 1.6 0.00 0.00 0.00 74 1011.7
20260509072704 12 317 0.0 0.0 0.00 0.00 0.00 76 1011.7
20260509072201 12 310 0.0 0.0 0.00 0.00 0.00 77 1011.8
20260509071657 12 312 0.0 0.0 0.00 0.00 0.00 77 1011.7
20260509071155 13 343 3.2 3.2 0.00 0.00 0.00 77 1011.4
20260509070652 13 312 0.0 0.0 0.00 0.00 0.00 77 1011.5
20260509070148 13 322 0.0 1.6 0.00 0.00 0.00 77 1011.4
20260509065644 13 351 1.6 3.2 0.00 0.00 0.00 76 1011.6
20260509065140 13 16 3.2 3.2 0.00 0.00 0.00 76 1011.7
20260509064637 13 320 3.2 3.2 0.00 0.00 0.00 77 1011.4
20260509064135 12 325 0.0 1.6 0.00 0.00 0.00 77 1011.3
20260509063632 12 319 0.0 0.0 0.00 0.00 0.00 77 1011.3
20260509063128 13 319 1.6 1.6 0.00 0.00 0.00 77 1011.5
20260509062626 13 309 0.0 1.6 0.00 0.00 0.00 77 1011.5
20260509062123 13 315 0.0 0.0 0.00 0.00 0.00 78 1011.5
20260509061619 13 312 0.0 0.0 0.00 0.00 0.00 78 1011.9
20260509061117 13 312 0.0 1.6 0.00 0.00 0.00 77 1011.9
20260509060615 13 312 1.6 3.2 0.00 0.00 0.00 77 1012.0
20260509060110 13 305 0.0 0.0 0.00 0.00 0.00 76 1012.3
20260509055606 13 331 1.6 1.6 0.00 0.00 0.00 75 1012.0
20260509055102 13 318 0.0 0.0 0.00 0.00 0.00 74 1012.3
20260509054559 13 341 1.6 1.6 0.00 0.00 0.00 73 1012.3
20260509054057 13 317 1.6 1.6 0.00 0.00 0.00 72 1012.1
20260509053555 13 310 1.6 1.6 0.00 0.00 0.00 71 1012.3
20260509053051 13 322 1.6 1.6 0.00 0.00 0.00 70 1012.1
20260509052549 13 357 1.6 1.6 0.00 0.00 0.00 69 1012.1
20260509052047 13 314 0.0 0.0 0.00 0.00 0.00 67 1012.4
20260509051545 13 317 0.0 0.0 0.00 0.00 0.00 67 1012.3
20260509051041 13 315 0.0 0.0 0.00 0.00 0.00 66 1012.2
20260509050539 13 319 0.0 0.0 0.00 0.00 0.00 66 1012.1
20260509050035 13 319 0.0 0.0 0.00 0.00 0.00 66 1012.1
20260509045532 13 317 0.0 0.0 0.00 0.00 0.00 67 1012.1
20260509045029 12 316 0.0 0.0 0.00 0.00 0.00 68 1012.0
20260509044527 12 316 0.0 0.0 0.00 0.00 0.00 69 1012.1
20260509044024 12 315 0.0 0.0 0.00 0.00 0.00 69 1011.9
20260509043520 12 315 0.0 0.0 0.00 0.00 0.00 69 1012.0
20260509043010 12 315 0.0 0.0 0.00 0.00 0.00 69 1012.1
20260509042507 12 315 0.0 0.0 0.00 0.00 0.00 68 1012.2
20260509042003 12 315 0.0 0.0 0.00 0.00 0.00 69 1012.0
20260509041500 12 316 0.0 0.0 0.00 0.00 0.00 68 1012.1
20260509040958 12 315 0.0 0.0 0.00 0.00 0.00 68 1012.0
20260509040456 12 315 0.0 0.0 0.00 0.00 0.00 68 1011.9
20260509035952 13 315 0.0 0.0 0.00 0.00 0.00 66 1012.0
20260509035449 13 317 0.0 1.6 0.00 0.00 0.00 66 1012.1
20260509034945 13 313 0.0 1.6 0.00 0.00 0.00 65 1012.3
20260509034443 13 314 0.0 1.6 0.00 0.00 0.00 65 1012.3
20260509033940 13 310 0.0 0.0 0.00 0.00 0.00 65 1012.1
20260509033437 13 310 0.0 0.0 0.00 0.00 0.00 65 1012.2
20260509032934 13 311 0.0 1.6 0.00 0.00 0.00 65 1012.1
20260509032431 13 315 1.6 1.6 0.00 0.00 0.00 65 1012.2
20260509031929 13 314 0.0 0.0 0.00 0.00 0.00 65 1012.1
20260509031426 13 315 0.0 0.0 0.00 0.00 0.00 65 1012.5
20260509030924 13 311 0.0 1.6 0.00 0.00 0.00 64 1012.3
20260509030421 13 311 0.0 0.0 0.00 0.00 0.00 63 1012.2
20260509025918 13 311 0.0 0.0 0.00 0.00 0.00 63 1012.5
20260509025414 13 311 0.0 0.0 0.00 0.00 0.00 63 1012.3
20260509024909 14 312 0.0 1.6 0.00 0.00 0.00 62 1012.3
20260509024405 14 311 0.0 0.0 0.00 0.00 0.00 61 1012.6
20260509023903 14 308 0.0 0.0 0.00 0.00 0.00 61 1012.4
20260509023400 14 15 0.0 1.6 0.00 0.00 0.00 62 1012.5
20260509022856 14 308 0.0 0.0 0.00 0.00 0.00 62 1012.5
20260509022353 14 309 0.0 0.0 0.00 0.00 0.00 62 1012.4
20260509021850 14 319 0.0 0.0 0.00 0.00 0.00 61 1012.0
20260509021347 14 308 0.0 0.0 0.00 0.00 0.00 61 1012.2
20260509020845 14 27 0.0 1.6 0.00 0.00 0.00 61 1012.4
20260509020343 14 357 0.0 1.6 0.00 0.00 0.00 61 1012.3
20260509015840 14 7 3.2 6.4 0.00 0.00 0.00 61 1012.5
20260509015338 14 316 3.2 3.2 0.00 0.00 0.00 61 1012.0
20260509014835 14 337 0.0 1.6 0.00 0.00 0.00 62 1012.0
20260509014332 14 306 1.6 1.6 0.00 0.00 0.00 62 1012.2
20260509013828 13 310 0.0 1.6 0.00 0.00 0.00 62 1011.9
20260509013324 13 349 3.2 4.8 0.00 0.00 0.00 62 1011.9
20260509012815 14 341 4.8 9.7 0.00 0.00 0.00 60 1011.9
20260509012312 14 6 1.6 3.2 0.00 0.00 0.00 60 1011.9
20260509011809 14 356 3.2 4.8 0.00 0.00 0.00 60 1011.6
20260509011307 14 350 4.8 6.4 0.00 0.00 0.00 60 1011.8
20260509010804 14 326 3.2 4.8 0.00 0.00 0.00 61 1011.6
20260509010300 14 336 1.6 3.2 0.00 0.00 0.00 61 1011.4
20260509005758 15 307 3.2 4.8 0.00 0.00 0.00 60 1011.4
20260509005256 15 310 1.6 1.6 0.00 0.00 0.00 56 1011.3
20260509004756 15 316 0.0 0.0 0.00 0.00 0.00 54 1011.2
20260509004253 15 313 0.0 0.0 0.00 0.00 0.00 54 1011.1
20260509003751 15 319 1.6 1.6 0.00 0.00 0.00 54 1011.0
20260509003248 15 320 0.0 1.6 0.00 0.00 0.00 53 1011.0
20260509002745 15 311 0.0 0.0 0.00 0.00 0.00 54 1010.7
20260509002243 15 314 1.6 1.6 0.00 0.00 0.00 53 1010.9
20260509001740 15 311 0.0 0.0 0.00 0.00 0.00 53 1010.7
20260509001236 15 311 0.0 0.0 0.00 0.00 0.00 53 1010.9
20260509000734 15 323 0.0 0.0 0.00 0.00 0.00 53 1010.8
20260509000233 15 310 0.0 0.0 0.00 0.00 0.00 53 1011.0
20260508235728 15 309 3.2 3.2 0.00 0.00 0.00 52 1011.0
20260508235225 15 300 0.0 1.6 0.00 0.00 0.00 52 1010.8
20260508234722 15 301 1.6 1.6 0.00 0.00 0.00 51 1010.9
20260508234218 15 303 0.0 1.6 0.00 0.00 0.00 51 1010.7
20260508233717 15 306 0.0 0.0 0.00 0.00 0.00 53 1010.8
20260508233215 15 303 0.0 1.6 0.00 0.00 0.00 51 1010.7
20260508232712 15 335 0.0 1.6 0.00 0.00 0.00 51 1010.7
20260508232208 15 298 1.6 1.6 0.00 0.00 0.00 51 1010.8
20260508231707 16 301 3.2 4.8 0.00 0.00 0.00 50 1010.7
20260508231203 16 219 3.2 4.8 0.00 0.00 0.00 49 1010.7
20260508230655 16 305 0.0 0.0 0.00 0.00 0.00 49 1010.6
20260508230150 15 306 0.0 1.6 0.00 0.00 0.00 50 1010.5
20260508225649 15 299 0.0 0.0 0.00 0.00 0.00 50 1010.4
20260508225144 16 292 3.2 4.8 0.00 0.00 0.00 49 1010.4
20260508224643 16 286 3.2 3.2 0.00 0.00 0.00 48 1010.5
20260508224140 16 303 1.6 1.6 0.00 0.00 0.00 48 1010.7
20260508223638 16 292 0.0 0.0 0.00 0.00 0.00 49 1010.5
20260508223135 16 304 3.2 3.2 0.00 0.00 0.00 49 1010.6
20260508222632 15 304 1.6 3.2 0.00 0.00 0.00 50 1010.6
20260508222129 16 301 3.2 3.2 0.00 0.00 0.00 49 1010.7
20260508221625 16 298 1.6 1.6 0.00 0.00 0.00 49 1010.4
20260508221121 16 294 3.2 4.8 0.00 0.00 0.00 48 1010.6
20260508220618 16 303 3.2 4.8 0.00 0.00 0.00 46 1010.4
20260508220114 17 260 3.2 4.8 0.00 0.00 0.00 46 1010.5
20260508215611 17 231 3.2 4.8 0.00 0.00 0.00 45 1010.2
20260508215108 17 278 3.2 3.2 0.00 0.00 0.00 44 1010.4
20260508214605 17 264 3.2 4.8 0.00 0.00 0.00 45 1010.5
20260508214101 17 272 4.8 4.8 0.00 0.00 0.00 43 1010.4
20260508213558 16 291 4.8 6.4 0.00 0.00 0.00 43 1010.3
20260508213054 17 291 8.0 11.3 0.00 0.00 0.00 44 1010.4
20260508212551 17 276 4.8 6.4 0.00 0.00 0.00 44 1010.4
20260508212048 16 227 6.4 9.7 0.00 0.00 0.00 44 1010.4
20260508211543 16 279 4.8 4.8 0.00 0.00 0.00 45 1010.5
20260508211040 16 300 1.6 3.2 0.00 0.00 0.00 48 1010.7
20260508210536 16 273 3.2 4.8 0.00 0.00 0.00 47 1010.5
20260508210034 16 293 3.2 3.2 0.00 0.00 0.00 47 1010.6
20260508205531 16 225 4.8 6.4 0.00 0.00 0.00 46 1010.5
20260508205027 16 306 4.8 4.8 0.00 0.00 0.00 45 1010.4
20260508204524 16 267 4.8 4.8 0.00 0.00 0.00 46 1010.6
20260508204020 16 255 3.2 4.8 0.00 0.00 0.00 46 1010.7
20260508203516 16 276 3.2 3.2 0.00 0.00 0.00 46 1010.7
20260508203012 16 274 3.2 3.2 0.00 0.00 0.00 47 1010.5
20260508202509 16 300 3.2 3.2 0.00 0.00 0.00 45 1010.7
20260508202006 16 316 8.0 11.3 0.00 0.00 0.00 44 1010.4
20260508201503 16 260 4.8 6.4 0.00 0.00 0.00 42 1010.4
20260508200959 16 290 3.2 4.8 0.00 0.00 0.00 42 1010.4
20260508200456 16 202 11.3 14.5 0.00 0.00 0.00 41 1010.5
20260508195950 16 302 1.6 1.6 0.00 0.00 0.00 43 1010.3
20260508195449 17 299 3.2 4.8 0.00 0.00 0.00 42 1010.2
20260508194944 16 189 4.8 9.7 0.00 0.00 0.00 42 1010.4
20260508194442 17 196 8.0 17.7 0.00 0.00 0.00 41 1010.4
20260508193939 17 327 6.4 6.4 0.00 0.00 0.00 42 1010.3
20260508193436 17 321 1.6 1.6 0.00 0.00 0.00 41 1010.5
20260508192932 17 292 3.2 4.8 0.00 0.00 0.00 41 1010.3
20260508192429 16 282 4.8 6.4 0.00 0.00 0.00 43 1010.5
20260508191926 17 251 3.2 4.8 0.00 0.00 0.00 43 1010.5
20260508191423 17 307 1.6 1.6 0.00 0.00 0.00 40 1010.5
20260508190920 17 324 6.4 11.3 0.00 0.00 0.00 40 1010.6
20260508190417 17 211 6.4 12.9 0.00 0.00 0.00 41 1010.6
20260508185913 16 326 6.4 9.7 0.00 0.00 0.00 41 1010.5
20260508185411 16 301 0.0 1.6 0.00 0.00 0.00 41 1010.7
20260508184908 16 289 3.2 4.8 0.00 0.00 0.00 40 1010.8
20260508184405 16 201 17.7 20.9 0.00 0.00 0.00 40 1010.8
20260508183901 16 39 4.8 6.4 0.00 0.00 0.00 40 1010.8
20260508183358 17 19 8.0 16.1 0.00 0.00 0.00 40 1010.8
20260508182848 17 248 6.4 11.3 0.00 0.00 0.00 39 1010.9
20260508182345 17 276 9.7 16.1 0.00 0.00 0.00 39 1010.8
20260508181840 17 289 4.8 6.4 0.00 0.00 0.00 38 1010.9
20260508181337 17 228 3.2 6.4 0.00 0.00 0.00 40 1010.9
20260508180835 17 217 3.2 3.2 0.00 0.00 0.00 41 1010.9
20260508180331 17 345 4.8 6.4 0.00 0.00 0.00 39 1010.8
20260508175827 17 173 9.7 14.5 0.00 0.00 0.00 39 1011.0
20260508175324 16 260 6.4 12.9 0.00 0.00 0.00 41 1011.1
20260508174823 16 119 6.4 9.7 0.00 0.00 0.00 41 1011.0
20260508174320 16 190 11.3 14.5 0.00 0.00 0.00 40 1011.1
20260508173816 16 167 8.0 11.3 0.00 0.00 0.00 42 1011.3
20260508173313 16 248 6.4 9.7 0.00 0.00 0.00 41 1011.2
20260508172809 17 182 8.0 24.1 0.00 0.00 0.00 39 1011.2
20260508172307 17 207 16.1 20.9 0.00 0.00 0.00 39 1011.1
20260508171803 17 274 9.7 12.9 0.00 0.00 0.00 41 1011.2
20260508171259 17 255 9.7 12.9 0.00 0.00 0.00 40 1011.2
20260508170755 16 247 8.0 12.9 0.00 0.00 0.00 39 1011.5
20260508170254 16 176 11.3 24.1 0.00 0.00 0.00 39 1011.3
20260508165750 16 199 9.7 11.3 0.00 0.00 0.00 40 1011.2
20260508165247 16 89 3.2 6.4 0.00 0.00 0.00 39 1011.4
20260508164737 15 71 8.0 9.7 0.00 0.00 0.00 40 1011.5
20260508164234 16 228 9.7 14.5 0.00 0.00 0.00 39 1011.4
20260508163732 16 189 6.4 11.3 0.00 0.00 0.00 39 1011.6
20260508163230 16 117 9.7 14.5 0.00 0.00 0.00 40 1011.6
20260508162725 16 221 11.3 17.7 0.00 0.00 0.00 39 1011.4
20260508162222 16 245 12.9 17.7 0.00 0.00 0.00 38 1011.4
20260508161719 17 160 11.3 20.9 0.00 0.00 0.00 37 1011.8
20260508161217 16 357 11.3 16.1 0.00 0.00 0.00 38 1011.8
20260508160714 16 255 8.0 11.3 0.00 0.00 0.00 40 1011.9
20260508160213 16 214 9.7 12.9 0.00 0.00 0.00 41 1011.7
20260508155709 16 194 9.7 17.7 0.00 0.00 0.00 41 1011.8
20260508155206 15 222 9.7 14.5 0.00 0.00 0.00 39 1011.9
20260508154703 16 215 6.4 11.3 0.00 0.00 0.00 40 1011.7
20260508154200 16 257 6.4 9.7 0.00 0.00 0.00 38 1011.8
20260508153656 16 179 8.0 9.7 0.00 0.00 0.00 39 1011.9
20260508153154 16 211 3.2 3.2 0.00 0.00 0.00 39 1011.7
20260508152650 16 288 4.8 6.4 0.00 0.00 0.00 39 1011.9
20260508152146 16 235 4.8 6.4 0.00 0.00 0.00 38 1011.8
20260508151642 16 248 3.2 4.8 0.00 0.00 0.00 38 1011.7
20260508151139 16 310 4.8 9.7 0.00 0.00 0.00 38 1011.8
20260508150636 15 265 6.4 6.4 0.00 0.00 0.00 40 1011.7
20260508150133 15 227 6.4 6.4 0.00 0.00 0.00 41 1011.8
20260508145629 15 275 4.8 6.4 0.00 0.00 0.00 42 1011.8
20260508145125 15 245 6.4 11.3 0.00 0.00 0.00 42 1012.0
20260508144623 16 212 8.0 9.7 0.00 0.00 0.00 42 1011.7
20260508144120 15 250 1.6 3.2 0.00 0.00 0.00 45 1011.9
20260508143618 15 218 3.2 4.8 0.00 0.00 0.00 43 1012.1
20260508143114 15 250 3.2 3.2 0.00 0.00 0.00 44 1012.0
20260508142611 15 276 4.8 4.8 0.00 0.00 0.00 49 1011.9
20260508142108 15 197 1.6 4.8 0.00 0.00 0.00 47 1011.9